Погода в Сандерленде

Великобритания     54°54′40″N   1°22′59″W
темп.,
°C
ветер,
м/с
пор.,
м/с
влажн.,
%
обл.,
%
осадки,
мм/ч
давл.,
гПа
погр.,
м
9 мая, вс
вс901:00+9ю3998100 0.0 993213
04:00+11ююз4119799 0.5 992479
07:00+11ююз4995100 0.9 991444
10:00+14ююз497378 0.0 9921199
13:00+16ююз5847100 0.0 9921894
16:00+15ю5755100 0.0 9921363
19:00+15ююз4962100 0.1 9921148
22:00+12ю41076100 0.0 993565
10 мая, пн
пн1001:00+10ю41082100 0.0 993399
04:00+9ю4108878 0.0 993333
07:00+9ю4108410 0.0 993490
10:00+12ю4967100 0.0 9941144
13:00+13ю596432 0.0 9941233
16:00+15ююз6961100 0.3 9951682
19:00+12ююз5118581 1.8 997925
22:00+9ююз512790 0.0 1001825
11 мая, вт
вт1101:00+8ююз512750 0.0 1003713
04:00+6ююз3108089 0.0 1005417
07:00+8ю25717 0.0 1006186
10:00+12ююв3556100 0.0 1007881
13:00+13вюв4757100 0.0 10071483
16:00+11юв5887100 0.9 1007492
19:00+9вюв51393100 4.6 1006635
22:00+8юв5797100 10.3 1007356
12 мая, ср
ср1201:00+7юв27965 11.1 1007204
04:00+6юв24965 0.0 100688
07:00+7ююв379636 0.0 1007342
10:00+10ююв358334 0.0 1007535
13:00+14юв355699 0.0 10061500
16:00+13в556666 0.0 1006576
19:00+12вюв4871100 0.1 1007315
22:00+10ююв2383100 0.0 100762
13 мая, чт
чт1301:00+9ююз1182100 0.0 100711
04:00+8ссв1184100 0.0 100810
07:00+9зсз118899 0.3 100876
10:00+11в338733 1.2 1009287
13:00+12в34815 2.6 1009525
16:00+13в44645 0.3 1009814
19:00+11всв45765 0.3 1010500
22:00+8св25935 0.0 1011152